User: anonymous   Login
Location: Fort Worth, Tx
(32.7431°N, 97.3695°W)
Time: 12:38:38
(UTC-04:00)
Language:

ZACube-1 - Orbit

View from above orbital plane
View from above orbital plane
View from above satellite
View from above satellite

Ground track
Ground track

The orbit data is extracted from the following two-line orbital elements,

1 39417U 13066B   20262.98912601  .00000165  00000-0  27137-4 0  9994
2 39417  97.5706 255.8316 0058121 332.6209  27.1944 14.81318780368883
Epoch (UTC): 18 September 2020 23:44:20
Eccentricity: 0.0058121
inclination: 97.5706°
perigee height: 584 km
apogee height: 666 km
right ascension of ascending node: 255.8316°
argument of perigee: 332.6209°
revolutions per day: 14.81318780
mean anomaly at epoch: 27.1944°
orbit number at epoch: 36888

The dashed part of the orbit path shows where the satellite is in the earth's shadow,  

DLR